| time (UTC) | temp F | wind direction | speed knots | gust knots | rain 1hr in | rain 24hr in | rain mn in | humidity % | barometer mb |
| 20260508023503 | 55 | 0 | 0.0 | 0.0 | 0.00 | 0.00 | 0.46 | 97 | 1013.0 |
| 20260508023004 | 55 | 0 | 0.0 | 0.0 | 0.00 | 0.00 | 0.46 | 97 | 1013.0 |
| 20260508022504 | 55 | 0 | 0.0 | 0.0 | 0.00 | 0.00 | 0.46 | 97 | 1013.0 |
| 20260508022004 | 55 | 0 | 0.0 | 0.0 | 0.00 | 0.00 | 0.46 | 97 | 1013.0 |
| 20260508021504 | 55 | 74 | 0.9 | 0.9 | 0.00 | 0.00 | 0.46 | 97 | 1013.0 |
| 20260508021003 | 55 | 20 | 0.0 | 0.0 | 0.00 | 0.00 | 0.46 | 97 | 1013.0 |
| 20260508020504 | 55 | 68 | 0.0 | 0.0 | 0.00 | 0.00 | 0.46 | 97 | 1013.0 |
| 20260508020007 | 55 | 0 | 0.0 | 0.0 | 0.00 | 0.00 | 0.46 | 96 | 1013.0 |
| 20260508015505 | 55 | 0 | 0.0 | 0.0 | 0.00 | 0.00 | 0.46 | 96 | 1013.0 |
| 20260508015004 | 55 | 0 | 0.0 | 0.0 | 0.00 | 0.00 | 0.46 | 96 | 1013.0 |
| 20260508014504 | 55 | 103 | 0.0 | 0.9 | 0.00 | 0.00 | 0.46 | 96 | 1013.0 |
| 20260508014005 | 55 | 0 | 0.0 | 0.0 | 0.00 | 0.00 | 0.46 | 96 | 1013.0 |
| 20260508013503 | 55 | 0 | 0.0 | 0.0 | 0.00 | 0.00 | 0.46 | 96 | 1012.0 |
| 20260508013004 | 55 | 0 | 0.0 | 0.0 | 0.00 | 0.00 | 0.46 | 96 | 1012.0 |
| 20260508012505 | 55 | 0 | 0.0 | 0.0 | 0.00 | 0.00 | 0.46 | 96 | 1012.0 |
| 20260508012003 | 55 | 0 | 0.0 | 0.0 | 0.00 | 0.00 | 0.46 | 96 | 1012.0 |
| 20260508011504 | 55 | 0 | 0.0 | 0.0 | 0.00 | 0.00 | 0.46 | 96 | 1012.0 |
| 20260508011007 | 55 | 87 | 0.0 | 0.9 | 0.00 | 0.00 | 0.46 | 96 | 1012.0 |
| 20260508010504 | 55 | 71 | 0.9 | 0.9 | 0.00 | 0.00 | 0.46 | 95 | 1012.0 |
| 20260508010003 | 55 | 123 | 0.0 | 0.0 | 0.00 | 0.00 | 0.46 | 95 | 1012.0 |
| 20260508005503 | 55 | 120 | 0.0 | 0.0 | 0.00 | 0.00 | 0.46 | 95 | 1012.0 |
| 20260508005003 | 55 | 0 | 0.0 | 0.0 | 0.00 | 0.00 | 0.46 | 95 | 1012.0 |
| 20260508004505 | 55 | 0 | 0.0 | 0.0 | 0.00 | 0.00 | 0.46 | 95 | 1012.0 |
| 20260508004003 | 55 | 0 | 0.0 | 0.0 | 0.00 | 0.00 | 0.46 | 95 | 1012.0 |
| 20260508003504 | 56 | 71 | 0.0 | 0.9 | 0.00 | 0.00 | 0.46 | 95 | 1012.0 |
| 20260508003006 | 56 | 38 | 0.0 | 0.9 | 0.00 | 0.00 | 0.46 | 96 | 1011.0 |
| 20260508002503 | 56 | 90 | 0.9 | 0.9 | 0.00 | 0.00 | 0.46 | 95 | 1011.0 |
| 20260508002003 | 56 | 193 | 0.0 | 0.9 | 0.00 | 0.00 | 0.46 | 95 | 1011.0 |
| 20260508001505 | 56 | 175 | 0.9 | 0.9 | 0.00 | 0.00 | 0.46 | 95 | 1012.0 |
| 20260508001004 | 56 | 0 | 0.0 | 0.0 | 0.00 | 0.00 | 0.46 | 95 | 1012.0 |
| 20260508000504 | 56 | 124 | 0.0 | 0.0 | 0.00 | 0.00 | 0.46 | 95 | 1012.0 |
| 20260508000003 | 56 | 0 | 0.0 | 0.0 | 0.00 | 0.00 | 0.46 | 95 | 1011.0 |
| 20260507235504 | 56 | 82 | 0.0 | 0.0 | 0.00 | 0.00 | 0.46 | 95 | 1011.0 |
| 20260507235006 | 56 | 32 | 0.0 | 0.9 | 0.00 | 0.00 | 0.46 | 95 | 1011.0 |
| 20260507234503 | 56 | 65 | 0.9 | 0.9 | 0.00 | 0.00 | 0.46 | 95 | 1011.0 |
| 20260507234003 | 56 | 71 | 0.0 | 0.0 | 0.00 | 0.00 | 0.46 | 95 | 1011.0 |
| 20260507233504 | 56 | 27 | 0.0 | 0.9 | 0.00 | 0.00 | 0.46 | 95 | 1011.0 |
| 20260507233005 | 56 | 68 | 0.0 | 0.0 | 0.00 | 0.00 | 0.46 | 95 | 1011.0 |
| 20260507232503 | 56 | 29 | 0.9 | 0.9 | 0.00 | 0.00 | 0.46 | 94 | 1011.0 |
| 20260507232003 | 56 | 91 | 0.0 | 0.0 | 0.00 | 0.00 | 0.46 | 94 | 1011.0 |
| 20260507231503 | 56 | 21 | 0.9 | 0.9 | 0.00 | 0.00 | 0.46 | 95 | 1011.0 |
| 20260507231003 | 56 | 140 | 0.0 | 0.9 | 0.00 | 0.00 | 0.46 | 94 | 1010.0 |
| 20260507230503 | 56 | 0 | 0.0 | 0.0 | 0.00 | 0.00 | 0.46 | 94 | 1010.0 |
| 20260507230004 | 56 | 210 | 0.0 | 0.0 | 0.00 | 0.00 | 0.46 | 94 | 1010.0 |
| 20260507225503 | 56 | 113 | 0.9 | 0.9 | 0.00 | 0.00 | 0.46 | 94 | 1010.0 |
| 20260507225004 | 56 | 99 | 0.0 | 0.9 | 0.00 | 0.00 | 0.46 | 94 | 1010.0 |
| 20260507224506 | 56 | 36 | 0.0 | 0.9 | 0.00 | 0.00 | 0.46 | 94 | 1010.0 |
| 20260507224004 | 56 | 117 | 0.0 | 0.0 | 0.00 | 0.00 | 0.46 | 94 | 1010.0 |
| 20260507223503 | 56 | 97 | 0.0 | 0.9 | 0.00 | 0.00 | 0.46 | 94 | 1010.0 |
| 20260507223003 | 56 | 81 | 0.9 | 0.9 | 0.00 | 0.00 | 0.46 | 93 | 1010.0 |
| 20260507222503 | 56 | 53 | 0.0 | 0.0 | 0.00 | 0.00 | 0.46 | 94 | 1010.0 |
| 20260507222004 | 56 | 80 | 0.0 | 0.0 | 0.00 | 0.00 | 0.46 | 94 | 1010.0 |
| 20260507221504 | 56 | 151 | 0.9 | 0.9 | 0.00 | 0.00 | 0.46 | 94 | 1010.0 |
| 20260507221006 | 56 | 0 | 0.0 | 0.0 | 0.00 | 0.00 | 0.46 | 94 | 1010.0 |
| 20260507220503 | 56 | 97 | 0.0 | 0.9 | 0.00 | 0.00 | 0.46 | 95 | 1010.0 |
| 20260507220005 | 56 | 60 | 0.9 | 1.7 | 0.00 | 0.00 | 0.46 | 95 | 1010.0 |
| 20260507215503 | 56 | 0 | 0.0 | 0.0 | 0.00 | 0.00 | 0.46 | 95 | 1011.0 |
| 20260507215004 | 56 | 53 | 0.0 | 0.0 | 0.00 | 0.00 | 0.45 | 95 | 1011.0 |
| 20260507214504 | 56 | 76 | 0.9 | 1.7 | 0.00 | 0.00 | 0.45 | 95 | 1011.0 |
| 20260507214004 | 56 | 13 | 0.0 | 0.9 | 0.00 | 0.00 | 0.45 | 95 | 1010.0 |
| 20260507213504 | 56 | 0 | 0.0 | 0.0 | 0.00 | 0.00 | 0.45 | 95 | 1010.0 |
| 20260507213005 | 56 | 41 | 0.9 | 1.7 | 0.00 | 0.00 | 0.45 | 95 | 1010.0 |
| 20260507212506 | 56 | 102 | 0.9 | 0.9 | 0.00 | 0.00 | 0.45 | 95 | 1010.0 |
| 20260507212006 | 56 | 72 | 0.9 | 0.9 | 0.00 | 0.00 | 0.45 | 94 | 1010.0 |
| 20260507211504 | 56 | 0 | 0.0 | 0.0 | 0.00 | 0.00 | 0.45 | 95 | 1010.0 |
| 20260507211003 | 56 | 0 | 0.0 | 0.0 | 0.00 | 0.00 | 0.45 | 95 | 1010.0 |
| 20260507210505 | 56 | 0 | 0.0 | 0.0 | 0.00 | 0.00 | 0.45 | 94 | 1010.0 |
| 20260507210003 | 56 | 0 | 0.0 | 0.0 | 0.00 | 0.00 | 0.45 | 95 | 1010.0 |
| 20260507205503 | 56 | 35 | 0.0 | 0.9 | 0.00 | 0.00 | 0.45 | 95 | 1010.0 |
| 20260507205003 | 56 | 0 | 0.0 | 0.0 | 0.00 | 0.00 | 0.45 | 95 | 1010.0 |
| 20260507204503 | 56 | 108 | 0.9 | 1.7 | 0.00 | 0.00 | 0.45 | 95 | 1010.0 |
| 20260507204005 | 56 | 110 | 0.0 | 0.9 | 0.00 | 0.00 | 0.45 | 95 | 1010.0 |
| 20260507203503 | 56 | 67 | 0.0 | 0.9 | 0.00 | 0.00 | 0.45 | 95 | 1010.0 |
| 20260507203006 | 56 | 154 | 0.9 | 0.9 | 0.00 | 0.00 | 0.45 | 94 | 1010.0 |
| 20260507202503 | 57 | 67 | 0.0 | 1.7 | 0.00 | 0.00 | 0.45 | 95 | 1010.0 |
| 20260507202003 | 57 | 114 | 0.9 | 0.9 | 0.00 | 0.00 | 0.45 | 95 | 1010.0 |
| 20260507201505 | 57 | 63 | 0.9 | 1.7 | 0.00 | 0.00 | 0.45 | 96 | 1010.0 |
| 20260507201005 | 57 | 176 | 0.9 | 0.9 | 0.00 | 0.00 | 0.45 | 96 | 1010.0 |
| 20260507200504 | 57 | 83 | 0.9 | 0.9 | 0.00 | 0.00 | 0.45 | 96 | 1010.0 |
| 20260507200005 | 57 | 115 | 0.0 | 0.0 | 0.00 | 0.00 | 0.45 | 95 | 1010.0 |
| 20260507195506 | 57 | 90 | 0.0 | 0.0 | 0.00 | 0.00 | 0.45 | 96 | 1010.0 |
| 20260507195003 | 57 | 103 | 0.0 | 0.9 | 0.00 | 0.00 | 0.45 | 96 | 1010.0 |
| 20260507194505 | 57 | 73 | 0.9 | 1.7 | 0.00 | 0.00 | 0.45 | 97 | 1010.0 |
| 20260507194003 | 57 | 56 | 0.9 | 0.9 | 0.00 | 0.00 | 0.45 | 96 | 1010.0 |
| 20260507193506 | 57 | 62 | 0.0 | 0.0 | 0.00 | 0.00 | 0.45 | 97 | 1010.0 |
| 20260507193004 | 57 | 306 | 0.9 | 0.9 | 0.00 | 0.00 | 0.45 | 97 | 1010.0 |
| 20260507192504 | 57 | 66 | 0.9 | 0.9 | 0.00 | 0.00 | 0.45 | 97 | 1010.0 |
| 20260507192005 | 57 | 80 | 0.9 | 0.9 | 0.00 | 0.00 | 0.48 | 97 | 1010.0 |
| 20260507191506 | 57 | 50 | 0.0 | 0.9 | 0.00 | 0.00 | 0.48 | 97 | 1010.0 |
| 20260507191004 | 58 | 75 | 0.0 | 0.0 | 0.00 | 0.00 | 0.48 | 97 | 1010.0 |
| 20260507190505 | 58 | 81 | 0.0 | 0.9 | 0.00 | 0.00 | 0.48 | 97 | 1010.0 |
| 20260507190006 | 58 | 88 | 0.9 | 0.9 | 0.00 | 0.00 | 0.49 | 97 | 1010.0 |
| 20260507185503 | 58 | 92 | 0.0 | 0.0 | 0.00 | 0.00 | 0.49 | 97 | 1010.0 |
| 20260507185004 | 58 | 115 | 0.0 | 0.9 | 0.00 | 0.00 | 0.48 | 97 | 1010.0 |
| 20260507184505 | 58 | 350 | 0.0 | 0.9 | 0.00 | 0.00 | 0.48 | 97 | 1009.0 |
| 20260507184004 | 58 | 89 | 0.0 | 0.9 | 0.00 | 0.00 | 0.48 | 97 | 1009.0 |
| 20260507183504 | 58 | 56 | 0.0 | 0.9 | 0.00 | 0.00 | 0.47 | 97 | 1009.0 |
| 20260507183004 | 58 | 229 | 0.0 | 0.0 | 0.00 | 0.00 | 0.47 | 97 | 1010.0 |
| 20260507182505 | 58 | 67 | 0.0 | 0.0 | 0.00 | 0.00 | 0.47 | 96 | 1010.0 |
| 20260507182003 | 58 | 125 | 0.9 | 0.9 | 0.00 | 0.00 | 0.45 | 96 | 1010.0 |
| 20260507181504 | 58 | 354 | 0.0 | 0.0 | 0.02 | 0.00 | 0.45 | 96 | 1010.0 |
| 20260507181004 | 58 | 331 | 0.9 | 0.9 | 0.02 | 0.00 | 0.45 | 96 | 1009.0 |
| 20260507180504 | 59 | 83 | 1.7 | 1.7 | 0.04 | 0.00 | 0.44 | 96 | 1009.0 |
| 20260507180005 | 59 | 56 | 0.0 | 0.9 | 0.01 | 0.00 | 0.44 | 96 | 1009.0 |
| 20260507175504 | 59 | 51 | 0.0 | 1.7 | 0.01 | 0.00 | 0.44 | 96 | 1009.0 |
| 20260507175003 | 59 | 0 | 0.0 | 0.0 | 0.00 | 0.00 | 0.44 | 96 | 1009.0 |
| 20260507174505 | 60 | 86 | 0.9 | 1.7 | 0.03 | 0.00 | 0.44 | 95 | 1009.0 |
| 20260507174003 | 60 | 265 | 0.0 | 0.0 | 0.04 | 0.00 | 0.44 | 95 | 1010.0 |
| 20260507173504 | 61 | 0 | 0.0 | 0.9 | 0.04 | 0.00 | 0.42 | 94 | 1010.0 |
| 20260507173004 | 62 | 86 | 0.9 | 1.7 | 0.00 | 0.00 | 0.42 | 93 | 1010.0 |
| 20260507172503 | 64 | 135 | 0.0 | 0.0 | 0.02 | 0.00 | 0.42 | 92 | 1009.0 |
| 20260507172004 | 66 | 77 | 0.9 | 0.9 | 0.02 | 0.00 | 0.44 | 95 | 1009.0 |
| 20260507171506 | 67 | 0 | 0.0 | 0.0 | 0.00 | 0.00 | 0.43 | 97 | 1009.0 |
| 20260507171006 | 67 | 0 | 0.0 | 0.0 | 0.00 | 0.00 | 0.43 | 97 | 1009.0 |
| 20260507170506 | 67 | 0 | 0.0 | 0.0 | 0.00 | 0.00 | 0.42 | 97 | 1008.0 |
| 20260507170003 | 68 | 146 | 0.0 | 0.0 | 0.00 | 0.00 | 0.42 | 97 | 1008.0 |
| 20260507165503 | 68 | 0 | 0.0 | 0.0 | 0.00 | 0.00 | 0.42 | 97 | 1008.0 |
| 20260507165003 | 68 | 33 | 0.0 | 0.9 | 0.02 | 0.00 | 0.42 | 98 | 1008.0 |
| 20260507164505 | 68 | 0 | 0.0 | 0.0 | 0.01 | 0.00 | 0.42 | 98 | 1008.0 |
| 20260507164005 | 68 | 0 | 0.0 | 0.0 | 0.01 | 0.00 | 0.41 | 98 | 1008.0 |
| 20260507163503 | 68 | 0 | 0.0 | 0.0 | 0.00 | 0.00 | 0.41 | 98 | 1008.0 |
| 20260507163005 | 68 | 0 | 0.0 | 0.0 | 0.01 | 0.00 | 0.41 | 98 | 1009.0 |
| 20260507162504 | 68 | 0 | 0.0 | 0.0 | 0.04 | 0.00 | 0.40 | 98 | 1009.0 |
| 20260507162006 | 68 | 221 | 0.0 | 0.0 | 0.01 | 0.00 | 0.41 | 98 | 1009.0 |
| 20260507161504 | 68 | 39 | 0.9 | 1.7 | 0.00 | 0.00 | 0.41 | 98 | 1010.0 |
| 20260507161006 | 68 | 0 | 0.0 | 0.0 | 0.03 | 0.00 | 0.40 | 98 | 1010.0 |
| 20260507160504 | 68 | 0 | 0.0 | 0.0 | 0.04 | 0.00 | 0.40 | 98 | 1010.0 |
| 20260507160004 | 68 | 262 | 0.0 | 0.9 | 0.26 | 0.00 | 0.38 | 98 | 1010.0 |
| 20260507155504 | 68 | 32 | 0.0 | 1.7 | 0.11 | 0.00 | 0.37 | 98 | 1010.0 |
| 20260507155005 | 68 | 0 | 0.0 | 0.0 | 0.03 | 0.00 | 0.36 | 98 | 1010.0 |
| 20260507154503 | 68 | 64 | 0.0 | 0.9 | 0.04 | 0.00 | 0.36 | 98 | 1010.0 |
| 20260507154005 | 68 | 0 | 0.0 | 0.0 | 0.00 | 0.00 | 0.36 | 98 | 1010.0 |
| 20260507153504 | 68 | 44 | 0.0 | 0.9 | 0.01 | 0.00 | 0.35 | 98 | 1010.0 |
| 20260507153004 | 68 | 0 | 0.0 | 0.0 | 0.00 | 0.00 | 0.35 | 98 | 1010.0 |
| 20260507152504 | 68 | 0 | 0.0 | 0.0 | 0.00 | 0.00 | 0.35 | 99 | 1009.0 |
| 20260507152003 | 68 | 0 | 0.0 | 0.0 | 0.00 | 0.00 | 0.36 | 99 | 1009.0 |
| 20260507151505 | 68 | 0 | 0.0 | 0.0 | 0.01 | 0.00 | 0.36 | 98 | 1009.0 |
| 20260507151004 | 68 | 0 | 0.0 | 0.0 | 0.00 | 0.00 | 0.36 | 99 | 1010.0 |
| 20260507150503 | 67 | 276 | 0.0 | 0.0 | 0.01 | 0.00 | 0.35 | 99 | 1010.0 |
| 20260507150006 | 67 | 98 | 0.0 | 0.0 | 0.03 | 0.00 | 0.34 | 99 | 1010.0 |
| 20260507145507 | 67 | 0 | 0.0 | 0.0 | 0.01 | 0.00 | 0.34 | 99 | 1010.0 |
| 20260507145004 | 67 | 0 | 0.0 | 0.0 | 0.01 | 0.00 | 0.34 | 99 | 1010.0 |
| 20260507144505 | 67 | 213 | 0.9 | 0.9 | 0.06 | 0.00 | 0.34 | 99 | 1010.0 |
| 20260507144006 | 67 | 203 | 0.0 | 0.9 | 0.00 | 0.00 | 0.33 | 98 | 1010.0 |
| 20260507143505 | 67 | 0 | 0.0 | 0.0 | 0.00 | 0.00 | 0.33 | 99 | 1010.0 |
| 20260507143007 | 67 | 236 | 0.9 | 0.9 | 0.05 | 0.00 | 0.33 | 99 | 1010.0 |
| 20260507142505 | 67 | 0 | 0.0 | 0.0 | 0.05 | 0.00 | 0.33 | 99 | 1010.0 |
| 20260507142003 | 67 | 0 | 0.0 | 0.0 | 0.08 | 0.00 | 0.32 | 99 | 1010.0 |
| 20260507141505 | 67 | 0 | 0.0 | 0.0 | 0.07 | 0.00 | 0.31 | 99 | 1010.0 |
| 20260507141004 | 67 | 0 | 0.0 | 0.0 | 0.07 | 0.00 | 0.31 | 99 | 1010.0 |
| 20260507140506 | 67 | 0 | 0.0 | 0.0 | 0.01 | 0.00 | 0.30 | 99 | 1010.0 |
| 20260507140004 | 67 | 209 | 0.0 | 0.0 | 0.02 | 0.00 | 0.30 | 99 | 1010.0 |
| 20260507135503 | 67 | 0 | 0.0 | 0.0 | 0.00 | 0.00 | 0.29 | 99 | 1010.0 |
| 20260507135003 | 67 | 240 | 0.0 | 0.9 | 0.01 | 0.00 | 0.29 | 99 | 1010.0 |
| 20260507134505 | 67 | 0 | 0.0 | 0.0 | 0.05 | 0.00 | 0.29 | 99 | 1010.0 |
| 20260507134005 | 66 | 0 | 0.0 | 0.0 | 0.02 | 0.00 | 0.28 | 99 | 1010.0 |
| 20260507133003 | 66 | 0 | 0.0 | 0.0 | 0.00 | 0.00 | 0.28 | 98 | 1010.0 |
| 20260507132504 | 66 | 0 | 0.0 | 0.0 | 0.02 | 0.00 | 0.28 | 99 | 1010.0 |
| 20260507132003 | 66 | 0 | 0.0 | 0.0 | 0.01 | 0.00 | 0.27 | 98 | 1010.0 |
| 20260507131504 | 66 | 0 | 0.0 | 0.0 | 0.00 | 0.00 | 0.27 | 98 | 1010.0 |
| 20260507131003 | 66 | 0 | 0.0 | 0.0 | 0.00 | 0.00 | 0.27 | 98 | 1010.0 |
| 20260507130503 | 66 | 0 | 0.0 | 0.0 | 0.00 | 0.00 | 0.27 | 98 | 1010.0 |
| 20260507130005 | 66 | 0 | 0.0 | 0.0 | 0.02 | 0.00 | 0.27 | 98 | 1010.0 |
| 20260507125503 | 66 | 0 | 0.0 | 0.0 | 0.00 | 0.00 | 0.27 | 98 | 1010.0 |
| 20260507125006 | 66 | 0 | 0.0 | 0.0 | 0.00 | 0.00 | 0.27 | 98 | 1010.0 |
| 20260507124503 | 66 | 0 | 0.0 | 0.0 | 0.00 | 0.00 | 0.27 | 98 | 1010.0 |
| 20260507124004 | 66 | 0 | 0.0 | 0.0 | 0.00 | 0.00 | 0.27 | 98 | 1010.0 |
| 20260507123503 | 66 | 0 | 0.0 | 0.0 | 0.00 | 0.00 | 0.27 | 98 | 1010.0 |
| 20260507123006 | 66 | 0 | 0.0 | 0.0 | 0.00 | 0.00 | 0.27 | 99 | 1010.0 |
| 20260507122503 | 65 | 0 | 0.0 | 0.0 | 0.00 | 0.00 | 0.27 | 98 | 1010.0 |
| 20260507122005 | 65 | 0 | 0.0 | 0.0 | 0.00 | 0.00 | 0.27 | 98 | 1010.0 |
| 20260507121504 | 65 | 0 | 0.0 | 0.0 | 0.00 | 0.00 | 0.27 | 98 | 1010.0 |
| 20260507121004 | 65 | 0 | 0.0 | 0.0 | 0.00 | 0.00 | 0.27 | 98 | 1010.0 |
| 20260507120503 | 65 | 0 | 0.0 | 0.0 | 0.00 | 0.00 | 0.27 | 98 | 1010.0 |
| 20260507120004 | 65 | 0 | 0.0 | 0.0 | 0.00 | 0.00 | 0.27 | 98 | 1010.0 |
| 20260507115505 | 65 | 0 | 0.0 | 0.0 | 0.00 | 0.00 | 0.27 | 98 | 1010.0 |
| 20260507115005 | 65 | 68 | 0.0 | 0.9 | 0.00 | 0.00 | 0.27 | 98 | 1011.0 |
| 20260507114505 | 65 | 0 | 0.0 | 0.0 | 0.00 | 0.00 | 0.27 | 98 | 1010.0 |
| 20260507114005 | 65 | 0 | 0.0 | 0.0 | 0.00 | 0.00 | 0.27 | 98 | 1010.0 |
| 20260507113503 | 65 | 0 | 0.0 | 0.0 | 0.00 | 0.00 | 0.27 | 98 | 1011.0 |
| 20260507113004 | 65 | 0 | 0.0 | 0.0 | 0.00 | 0.00 | 0.27 | 98 | 1011.0 |
| 20260507112503 | 65 | 236 | 0.0 | 0.9 | 0.00 | 0.00 | 0.27 | 98 | 1011.0 |
| 20260507112005 | 65 | 0 | 0.0 | 0.0 | 0.00 | 0.00 | 0.27 | 98 | 1011.0 |
| 20260507111506 | 65 | 0 | 0.0 | 0.0 | 0.00 | 0.00 | 0.27 | 98 | 1011.0 |
| 20260507111006 | 65 | 0 | 0.0 | 0.0 | 0.00 | 0.00 | 0.27 | 98 | 1011.0 |
| 20260507110504 | 65 | 0 | 0.0 | 0.0 | 0.00 | 0.00 | 0.27 | 98 | 1011.0 |
| 20260507110003 | 65 | 0 | 0.0 | 0.0 | 0.00 | 0.00 | 0.27 | 98 | 1011.0 |
| 20260507105503 | 65 | 0 | 0.0 | 0.0 | 0.00 | 0.00 | 0.27 | 98 | 1011.0 |
| 20260507105006 | 65 | 0 | 0.0 | 0.0 | 0.00 | 0.00 | 0.26 | 98 | 1011.0 |
| 20260507104503 | 65 | 0 | 0.0 | 0.0 | 0.00 | 0.00 | 0.26 | 98 | 1010.0 |
| 20260507104006 | 64 | 270 | 0.0 | 0.0 | 0.00 | 0.00 | 0.26 | 98 | 1010.0 |
| 20260507103504 | 64 | 186 | 0.0 | 0.9 | 0.00 | 0.00 | 0.26 | 98 | 1010.0 |
| 20260507103003 | 64 | 0 | 0.0 | 0.0 | 0.01 | 0.00 | 0.26 | 98 | 1010.0 |
| 20260507102503 | 64 | 0 | 0.0 | 0.0 | 0.01 | 0.00 | 0.26 | 98 | 1010.0 |
| 20260507102003 | 64 | 0 | 0.0 | 0.0 | 0.02 | 0.00 | 0.26 | 98 | 1010.0 |
| 20260507101507 | 64 | 0 | 0.0 | 0.0 | 0.01 | 0.00 | 0.26 | 98 | 1010.0 |
| 20260507101008 | 64 | 0 | 0.0 | 0.0 | 0.01 | 0.00 | 0.26 | 98 | 1010.0 |
| 20260507100506 | 64 | 0 | 0.0 | 0.0 | 0.01 | 0.00 | 0.26 | 98 | 1010.0 |
| 20260507100004 | 64 | 0 | 0.0 | 0.0 | 0.00 | 0.00 | 0.26 | 98 | 1010.0 |
| 20260507095504 | 64 | 0 | 0.0 | 0.0 | 0.00 | 0.00 | 0.26 | 98 | 1010.0 |
| 20260507095004 | 64 | 217 | 0.0 | 0.0 | 0.00 | 0.00 | 0.25 | 98 | 1010.0 |
| 20260507094505 | 64 | 0 | 0.0 | 0.0 | 0.00 | 0.00 | 0.25 | 98 | 1010.0 |
| 20260507094005 | 64 | 0 | 0.0 | 0.0 | 0.00 | 0.00 | 0.25 | 98 | 1010.0 |
| 20260507093503 | 64 | 0 | 0.0 | 0.0 | 0.01 | 0.00 | 0.25 | 98 | 1010.0 |
| 20260507093003 | 64 | 0 | 0.0 | 0.0 | 0.01 | 0.00 | 0.25 | 98 | 1010.0 |
| 20260507092503 | 64 | 0 | 0.0 | 0.0 | 0.00 | 0.00 | 0.25 | 98 | 1011.0 |
| 20260507092003 | 64 | 0 | 0.0 | 0.0 | 0.00 | 0.00 | 0.24 | 98 | 1010.0 |
| 20260507091503 | 64 | 0 | 0.0 | 0.0 | 0.00 | 0.00 | 0.24 | 98 | 1010.0 |
| 20260507091004 | 64 | 0 | 0.0 | 0.0 | 0.00 | 0.00 | 0.24 | 98 | 1010.0 |
| 20260507090504 | 64 | 0 | 0.0 | 0.0 | 0.00 | 0.00 | 0.24 | 98 | 1010.0 |
| 20260507090009 | 64 | 0 | 0.0 | 0.0 | 0.00 | 0.00 | 0.24 | 98 | 1010.0 |
| 20260507085505 | 64 | 0 | 0.0 | 0.0 | 0.02 | 0.00 | 0.24 | 98 | 1011.0 |
| 20260507085003 | 64 | 0 | 0.0 | 0.0 | 0.05 | 0.00 | 0.24 | 98 | 1011.0 |
| 20260507084504 | 64 | 194 | 0.0 | 0.0 | 0.00 | 0.00 | 0.23 | 98 | 1010.0 |
| 20260507084006 | 64 | 234 | 0.0 | 0.9 | 0.00 | 0.00 | 0.23 | 98 | 1010.0 |
| 20260507083505 | 64 | 190 | 0.0 | 0.0 | 0.00 | 0.00 | 0.23 | 98 | 1010.0 |
| 20260507083005 | 64 | 0 | 0.0 | 0.0 | 0.00 | 0.00 | 0.23 | 98 | 1011.0 |
| 20260507082504 | 64 | 216 | 0.0 | 0.0 | 0.00 | 0.00 | 0.23 | 98 | 1011.0 |
| 20260507082004 | 64 | 0 | 0.0 | 0.0 | 0.00 | 0.00 | 0.23 | 98 | 1011.0 |
| 20260507081504 | 64 | 0 | 0.0 | 0.0 | 0.00 | 0.00 | 0.23 | 98 | 1011.0 |
| 20260507081003 | 64 | 0 | 0.0 | 0.0 | 0.00 | 0.00 | 0.23 | 98 | 1011.0 |
| 20260507080504 | 64 | 0 | 0.0 | 0.0 | 0.00 | 0.00 | 0.23 | 98 | 1011.0 |
| 20260507080003 | 64 | 236 | 0.0 | 0.0 | 0.00 | 0.00 | 0.23 | 98 | 1011.0 |
| 20260507075504 | 64 | 0 | 0.0 | 0.0 | 0.00 | 0.00 | 0.23 | 98 | 1011.0 |
| 20260507075004 | 64 | 0 | 0.0 | 0.0 | 0.02 | 0.00 | 0.23 | 98 | 1011.0 |
| 20260507074503 | 64 | 0 | 0.0 | 0.0 | 0.00 | 0.00 | 0.22 | 98 | 1011.0 |
| 20260507074005 | 64 | 0 | 0.0 | 0.0 | 0.00 | 0.00 | 0.22 | 98 | 1011.0 |
| 20260507073505 | 64 | 0 | 0.0 | 0.0 | 0.07 | 0.00 | 0.22 | 98 | 1011.0 |
| 20260507073005 | 64 | 0 | 0.0 | 0.0 | 0.10 | 0.00 | 0.20 | 98 | 1011.0 |
| 20260507072503 | 64 | 0 | 0.0 | 0.0 | 0.01 | 0.00 | 0.20 | 98 | 1011.0 |
| 20260507072007 | 64 | 0 | 0.0 | 0.0 | 0.00 | 0.00 | 0.20 | 98 | 1012.0 |
| 20260507071504 | 64 | 0 | 0.0 | 0.0 | 0.00 | 0.00 | 0.20 | 98 | 1011.0 |
| 20260507071005 | 64 | 0 | 0.0 | 0.0 | 0.00 | 0.00 | 0.20 | 98 | 1012.0 |
| 20260507070503 | 64 | 0 | 0.0 | 0.0 | 0.00 | 0.00 | 0.20 | 98 | 1011.0 |
| 20260507070009 | 64 | 0 | 0.0 | 0.0 | 0.00 | 0.00 | 0.21 | 98 | 1011.0 |
| 20260507065503 | 64 | 0 | 0.0 | 0.0 | 0.00 | 0.00 | 0.21 | 98 | 1012.0 |
| 20260507065005 | 64 | 0 | 0.0 | 0.0 | 0.00 | 0.00 | 0.21 | 98 | 1011.0 |
| 20260507064505 | 65 | 0 | 0.0 | 0.0 | 0.00 | 0.00 | 0.21 | 98 | 1012.0 |
| 20260507064003 | 65 | 0 | 0.0 | 0.0 | 0.00 | 0.00 | 0.21 | 97 | 1012.0 |
| 20260507063503 | 65 | 0 | 0.0 | 0.0 | 0.00 | 0.00 | 0.21 | 97 | 1012.0 |
| 20260507063010 | 65 | 44 | 0.9 | 0.9 | 0.00 | 0.00 | 0.21 | 97 | 1012.0 |
| 20260507062505 | 65 | 35 | 0.0 | 0.9 | 0.00 | 0.00 | 0.21 | 97 | 1012.0 |
| 20260507062005 | 65 | 0 | 0.0 | 0.0 | 0.00 | 0.00 | 0.20 | 97 | 1012.0 |
| 20260507061505 | 65 | 262 | 0.0 | 0.0 | 0.00 | 0.00 | 0.20 | 97 | 1012.0 |
| 20260507061003 | 65 | 243 | 0.0 | 0.9 | 0.00 | 0.00 | 0.20 | 97 | 1012.0 |
| 20260507060503 | 65 | 0 | 0.0 | 0.0 | 0.00 | 0.00 | 0.20 | 97 | 1012.0 |
| 20260507060004 | 65 | 0 | 0.0 | 0.0 | 0.00 | 0.00 | 0.17 | 97 | 1012.0 |
| 20260507055505 | 65 | 0 | 0.0 | 0.0 | 0.00 | 0.00 | 0.17 | 97 | 1012.0 |
| 20260507055003 | 65 | 0 | 0.0 | 0.0 | 0.00 | 0.00 | 0.17 | 97 | 1012.0 |
| 20260507054503 | 65 | 0 | 0.0 | 0.0 | 0.00 | 0.00 | 0.17 | 97 | 1012.0 |
| 20260507054004 | 65 | 54 | 0.0 | 0.9 | 0.00 | 0.00 | 0.17 | 97 | 1013.0 |
| 20260507053505 | 65 | 0 | 0.0 | 0.0 | 0.00 | 0.00 | 0.17 | 97 | 1012.0 |
| 20260507053007 | 65 | 53 | 0.9 | 0.9 | 0.00 | 0.00 | 0.17 | 97 | 1012.0 |
| 20260507052503 | 65 | 346 | 0.0 | 0.9 | 0.00 | 0.00 | 0.17 | 97 | 1012.0 |
| 20260507052004 | 65 | 0 | 0.0 | 0.0 | 0.00 | 0.00 | 0.19 | 97 | 1011.0 |
| 20260507051504 | 65 | 232 | 0.0 | 0.0 | 0.00 | 0.00 | 0.19 | 97 | 1011.0 |
| 20260507051006 | 65 | 0 | 0.0 | 0.0 | 0.00 | 0.00 | 0.19 | 97 | 1011.0 |
| 20260507050503 | 65 | 0 | 0.0 | 0.0 | 0.15 | 0.00 | 0.19 | 97 | 1011.0 |
| 20260507050004 | 65 | 196 | 0.0 | 0.9 | 0.17 | 0.00 | 0.18 | 96 | 1012.0 |
| 20260507045505 | 66 | 209 | 0.9 | 0.9 | 0.22 | 0.00 | 0.16 | 96 | 1012.0 |
| 20260507045003 | 66 | 216 | 0.9 | 0.9 | 0.27 | 0.00 | 0.15 | 96 | 1013.0 |
| 20260507044506 | 66 | 220 | 0.9 | 0.9 | 0.21 | 0.00 | 0.13 | 96 | 1013.0 |
| 20260507044003 | 66 | 0 | 0.0 | 0.0 | 0.21 | 0.00 | 0.11 | 96 | 1013.0 |
| 20260507043504 | 66 | 0 | 0.0 | 0.0 | 0.23 | 0.00 | 0.08 | 95 | 1013.0 |
| 20260507043003 | 66 | 278 | 0.9 | 0.9 | 0.04 | 0.00 | 0.07 | 95 | 1014.0 |
| 20260507042503 | 66 | 349 | 0.0 | 0.9 | 0.09 | 0.00 | 0.06 | 95 | 1014.0 |
| 20260507042003 | 66 | 29 | 0.9 | 1.7 | 0.14 | 0.00 | 0.03 | 95 | 1014.0 |
| 20260507041505 | 66 | 347 | 0.0 | 0.9 | 0.07 | 0.00 | 0.02 | 95 | 1014.0 |
| 20260507041003 | 66 | 40 | 0.0 | 0.9 | 0.06 | 0.00 | 0.01 | 95 | 1014.0 |
| 20260507040503 | 66 | 0 | 0.0 | 0.0 | 0.04 | 0.00 | 0.00 | 95 | 1014.0 |
| 20260507040006 | 66 | 72 | 0.0 | 0.0 | 0.00 | 0.00 | 0.19 | 96 | 1014.0 |
| 20260507035505 | 66 | 0 | 0.0 | 0.0 | 0.00 | 0.00 | 0.19 | 96 | 1013.0 |
| 20260507035005 | 66 | 0 | 0.0 | 0.0 | 0.00 | 0.00 | 0.19 | 96 | 1013.0 |
| 20260507034504 | 66 | 0 | 0.0 | 0.0 | 0.02 | 0.00 | 0.19 | 96 | 1013.0 |
| 20260507034003 | 66 | 0 | 0.0 | 0.0 | 0.01 | 0.00 | 0.19 | 95 | 1013.0 |
| 20260507033503 | 66 | 0 | 0.0 | 0.0 | 0.01 | 0.00 | 0.19 | 95 | 1013.0 |
| 20260507033003 | 66 | 0 | 0.0 | 0.0 | 0.01 | 0.00 | 0.19 | 95 | 1012.0 |
| 20260507032504 | 67 | 0 | 0.0 | 0.0 | 0.01 | 0.00 | 0.19 | 95 | 1012.0 |
| 20260507032003 | 67 | 0 | 0.0 | 0.0 | 0.03 | 0.00 | 0.19 | 95 | 1012.0 |
| 20260507031503 | 67 | 0 | 0.0 | 0.0 | 0.01 | 0.00 | 0.19 | 95 | 1013.0 |
| 20260507031003 | 67 | 0 | 0.0 | 0.0 | 0.01 | 0.00 | 0.19 | 94 | 1013.0 |
| 20260507030503 | 67 | 0 | 0.0 | 0.0 | 0.00 | 0.00 | 0.18 | 93 | 1013.0 |
| 20260507030003 | 67 | 0 | 0.0 | 0.0 | 0.01 | 0.00 | 0.18 | 93 | 1013.0 |
| 20260507025503 | 67 | 0 | 0.0 | 0.0 | 0.06 | 0.00 | 0.17 | 93 | 1013.0 |
| 20260507025004 | 67 | 201 | 0.9 | 0.9 | 0.02 | 0.00 | 0.17 | 95 | 1013.0 |
| 20260507024503 | 67 | 0 | 0.0 | 0.0 | 0.00 | 0.00 | 0.16 | 96 | 1012.0 |
| 20260507024004 | 67 | 0 | 0.0 | 0.0 | 0.00 | 0.00 | 0.16 | 96 | 1012.0 |